This is the latest recevied weather packets stored in our database for station/object DB5WY-13. If no packets are shown the sender has not sent any weather packets the latest 10 day(s).
| Time | Temp. | Humidity | Pressure | Rain* | Wind** | Luminosity | Snow |
|---|---|---|---|---|---|---|---|
| 1777440625 | 8.89° C | 39% | 1024.5 hPa | 0 mm | - | - | - |
| 1777440025 | 8.33° C | 40% | 1024.5 hPa | 0 mm | - | - | - |
| 1777439425 | 7.78° C | 41% | 1024.3 hPa | 0 mm | - | - | - |
| 1777438826 | 7.22° C | 43% | 1024.2 hPa | 0 mm | - | - | - |
| 1777438226 | 6.67° C | 43% | 1024.2 hPa | 0 mm | - | - | - |
| 1777437626 | 6.67° C | 45% | 1024 hPa | 0 mm | - | - | - |
| 1777437026 | 5.56° C | 46% | 1024 hPa | 0 mm | - | - | - |
| 1777436426 | 5.56° C | 46% | 1023.9 hPa | 0 mm | - | - | - |
| 1777435826 | 5° C | 46% | 1023.9 hPa | 0 mm | - | - | - |
| 1777435226 | 5.56° C | 46% | 1023.8 hPa | 0 mm | - | - | - |
| 1777434626 | 5.56° C | 46% | 1023.8 hPa | 0 mm | - | - | - |
| 1777434026 | 5.56° C | 46% | 1023.8 hPa | 0 mm | - | - | - |
| 1777433426 | 5.56° C | 45% | 1024 hPa | 0 mm | - | - | - |
| 1777432826 | 5.56° C | 45% | 1024 hPa | 0 mm | - | - | - |
| 1777432226 | 5.56° C | 45% | 1023.7 hPa | 0 mm | - | - | - |
| 1777431626 | 5.56° C | 44% | 1023.9 hPa | 0 mm | - | - | - |
| 1777431026 | 5.56° C | 45% | 1024 hPa | 0 mm | - | - | - |
| 1777430426 | 5.56° C | 45% | 1023.7 hPa | 0 mm | - | - | - |
| 1777429826 | 5.56° C | 45% | 1023.7 hPa | 0 mm | - | - | - |
| 1777429226 | 5.56° C | 45% | 1023.8 hPa | 0 mm | - | - | - |
| 1777428626 | 5.56° C | 46% | 1023.7 hPa | 0 mm | - | - | - |
| 1777428026 | 6.11° C | 45% | 1023.8 hPa | 0 mm | - | - | - |
| 1777427426 | 5.56° C | 45% | 1023.6 hPa | 0 mm | - | - | - |
| 1777426826 | 6.11° C | 45% | 1023.7 hPa | 0 mm | - | - | - |
| 1777426226 | 6.11° C | 45% | 1023.7 hPa | 0 mm | - | - | - |
* Rain latest hour (hover to see other rain measurements)
** Current wind speed in m/s (hover to see current wind gust speed)